SCP
0 0 0 0 0 0 0 0 0 0 0 0 0 0 0 0 0 0 0 0 0 0 0 0 0 0 0 0 0 0 0 0 0 0 0 0 0 0 0 0 0 0 0
0 0 0 0 0 0 0 0 0 0 0 0 0 0 0 0 0 0 0 0 0 0 0 0 0 0 0 0 0 0 0 0 0 0 0 0 0 0 0 0 0 0 0
0 0 0 0 0 0 0 0 0 0 0 0 0 0 0 0 0 0 0 0 0 0 0 0 0 0 0 0 0 0 0 0 0 0 0 0 0 0 0 0 0 0 0
0 0 0 0 0 0 0 0 0 0 0 0 0 0 0 0 0 0 0 0 0 0 0 0 0 0 0 0 0 0 0 0 0 0 0 0 0 0 0 0 0 0 0
0 0 0 0 0 0 0 0 0 0 0 0 0 0 0 0 0 0 0 1 1 0 0 0 0 0 0 0 0 0 0 0 0 0 0 0 0 0 0 0 0 0 0
0 0 0 0 0 0 0 0 0 0 0 0 0 0 0 0 0 0 0 1 1 1 1 0 0 0 0 0 0 0 0 0 0 0 0 0 0 0 0 0 0 0 0
0 0 0 0 0 0 0 0 0 0 0 0 0 0 0 0 0 0 0 1 2 1 1 1 0 0 0 0 0 0 0 0 0 0 0 0 0 0 0 0 0 0 0
0 0 0 0 0 0 0 0 -0 -0 -0 0 0 0 0 0 0 0 0 0 1 1 1 1 0 0 0 0 0 0 0 0 0 0 0 0 0 0 0 0 0 0 0
0 0 0 0 0 0 0 0 0 0 0 0 0 0 0 0 0 0 0 0 0 0 0 0 0 0 0 0 0 0 0 0 0 0 0 0 0 0 0 0 0 0 0
0 0 0 0 0 0 0 0 0 0 0 0 0 0 0 0 0 0 0 0 0 0 0 0 0 0 0 0 0 0 0 0 0 0 0 0 0 0 0 0 0 0 0
0 0 0 0 0 0 0 0 0 0 0 0 0 0 0 0 0 0 0 0 0 0 0 0 0 0 0 0 0 0 0 0 0 0 0 0 0 0 0 0 0 0 0
0 0 0 0 0 0 0 0 0 0 0 0 0 0 0 0 0 0 0 0 0 0 0 0 0 0 0 0 0 0 0 0 0 0 0 0 0 0 0 0 0 0 0
0 0 0 0 0 0 0 0 0 0 0 0 0 0 0 0 0 0 0 0 0 0 0 0 0 0 0 0 0 0 0 0 0 0 0 0 0 0 0 0 0 0 0
0 0 0 0 0 0 0 0 0 0 0 0 0 0 0 0 0 0 0 0 0 0 0 0 0 0 0 0 0 0 0 0 0 0 0 0 0 0 0 0 0 0 0
0 0 0 0 0 0 0 0 0 0 0 0 0 0 0 0 0 0 0 0 0 0 0 0 0 0 0 0 0 0 0 0 0 0 0 0 0 0 0 0 0 0 0
0 0 0 0 0 0 0 0 0 0 0 0 0 0 0 0 0 0 0 0 0 0 0 0 0 0 0 0 0 0 0 0 0 0 0 0 0 0 0 0 0 0 0
0 0 0 0 0 0 0 0 0 0 0 0 0 0 0 0 0 0 0 0 0 0 0 0 0 0 0 0 0 0 0 0 0 0 0 0 0 0 0 0 0 0 0
0 0 0 0 0 0 0 0 0 0 0 0 0 0 0 0 0 0 0 0 0 0 0 0 0 0 0 0 0 0 0 0 0 0 0 0 0 0 0 0 0 0 0
0 0 0 0 0 0 0 0 0 0 0 0 0 0 0 -0 -0 -0 -0 0 0 0 0 0 0 0 0 0 0 0 0 0 0 0 0 0 0 0 0 0 0 0 0
0 0 0 0 0 0 0 0 0 0 0 0 0 0 0 0 0 0 0 0 0 0 0 0 0 0 0 0 0 0 0 0 0 0 0 0 0 0 0 0 0 0 0
0 0 0 0 0 0 0 0 0 0 0 0 0 0 0 0 0 0 0 0 0 0 0 0 0 0 0 0 0 0 0 0 0 0 0 0 0 0 0 0 0 0 0
0 0 0 0 0 0 0 0 0 0 0 0 0 0 0 0 0 0 0 0 0 0 0 0 0 0 0 0 0 0 0 0 0 0 0 0 0 0 0 0 0 0 0
0 0 0 0 0 0 0 0 0 0 0 0 0 0 0 0 0 0 0 0 0 0 0 0 0 0 0 0 0 0 0 0 0 0 0 0 0 0 0 0 0 0 0
0 0 0 0 0 0 0 0 0 0 0 0 0 0 0 0 0 0 0 0 0 0 0 0 0 0 0 0 0 0 0 0 0 0 0 0 0 0 0 0 0 0 0
0 0 0 0 0 0 0 0 0 0 0 0 0 0 0 0 0 0 0 0 0 0 0 0 0 0 0 0 0 0 0 0 0 0 0 0 0 0 0 0 0 0 0
0 0 0 0 0 0 0 0 0 0 0 0 0 0 0 0 0 0 0 0 0 0 0 0 0 0 0 0 0 0 0 0 0 0 0 0 0 0 0 0 0 0 0
Wind_Speed_500mb
43 46 50 53 58 64 69 73 76 78 81 89 96 101 111 115 117 122 124 123 123 131 127 125 129 123 118 119 113 123 118 113 103 98 86 71 61 57 60 59 56 53 56
48 47 49 53 58 61 66 74 81 87 89 89 90 101 108 111 114 125 132 134 126 129 128 124 128 123 121 114 108 108 111 114 110 91 93 86 78 70 64 61 59 51 59
55 56 56 59 62 66 66 66 72 83 88 84 86 91 98 107 113 116 127 133 138 137 137 128 127 125 127 121 116 106 104 96 100 92 87 84 82 72 69 67 65 61 62
66 66 69 69 70 69 70 71 75 78 84 91 97 99 102 105 109 116 119 124 130 132 134 136 137 130 126 122 122 116 105 99 98 101 90 90 79 74 74 80 69 66 58
75 78 79 79 79 81 81 80 81 82 90 97 102 105 110 111 112 115 120 124 126 128 131 129 134 138 133 129 122 121 115 110 105 101 99 98 90 83 83 77 72 77 59
73 78 82 86 85 87 89 88 87 92 96 97 100 101 104 110 115 116 116 119 122 127 125 127 136 140 133 136 134 130 120 110 116 108 110 99 95 86 79 80 64 61 62
69 75 79 81 87 93 96 100 105 111 114 117 116 108 108 109 111 111 112 118 124 122 130 126 127 136 127 128 131 136 110 99 116 106 116 100 94 82 83 81 70 61 54
70 73 75 80 88 92 98 109 118 118 117 116 114 104 97 106 104 104 103 108 120 125 127 130 127 138 128 136 134 136 126 123 116 102 90 75 74 65 71 54 39 51 42
74 77 77 79 85 94 103 104 98 99 101 100 98 96 92 96 93 93 95 102 112 121 126 130 134 138 130 129 137 138 129 103 97 94 83 77 60 60 57 51 55 51 45
76 79 81 80 86 92 95 92 92 86 90 89 92 91 87 86 87 88 84 90 103 112 111 127 130 126 135 126 140 142 120 105 103 87 75 57 57 51 44 43 43 45 41
77 81 84 82 83 86 82 78 81 82 82 84 84 84 85 79 85 82 82 91 101 105 117 122 129 136 138 131 132 123 95 97 84 78 66 63 50 35 40 47 40 37 33
79 83 85 83 80 78 72 75 76 81 86 82 84 79 77 79 79 73 85 83 98 105 116 125 130 132 127 102 82 69 60 75 71 60 55 52 36 47 46 41 35 32 27
83 84 83 80 75 67 68 73 73 78 83 81 78 72 63 62 67 71 75 78 74 80 97 96 89 68 85 87 83 69 81 66 68 63 56 51 49 46 43 40 35 30 25
89 84 80 74 70 62 63 67 69 78 71 68 67 62 54 46 39 26 40 40 49 61 68 61 70 51 66 71 68 65 67 67 60 56 58 53 49 44 37 31 29 28 24
91 84 76 65 60 59 57 63 65 67 57 49 48 42 33 24 11 6 4 8 30 65 78 71 61 75 74 74 70 63 53 55 55 56 55 51 43 39 36 32 27 24 20
90 82 71 61 55 53 51 54 57 60 42 33 28 21 21 11 5 7 24 40 39 61 69 69 78 73 66 64 65 64 58 54 50 48 47 46 44 40 36 33 25 21 19
82 76 66 56 49 48 47 47 46 41 29 20 12 11 12 17 20 25 30 48 57 53 54 65 68 65 66 63 63 62 61 54 49 45 43 43 41 38 32 27 23 20 19
73 66 60 54 46 43 43 43 40 34 22 10 8 10 13 16 19 22 23 28 38 41 50 56 59 59 60 59 59 56 54 51 48 45 42 39 35 30 28 25 22 20 18
66 61 52 48 40 41 43 43 41 35 30 24 24 26 27 25 27 29 31 32 39 46 48 49 50 49 48 48 47 48 49 49 45 42 38 34 30 25 26 25 23 20 17
58 50 43 42 39 40 45 43 44 40 41 37 33 30 29 29 32 33 34 38 43 46 48 47 45 41 40 42 43 42 41 39 36 33 29 26 25 24 23 22 20 17 15
50 43 36 36 37 42 46 46 47 46 45 39 34 30 28 30 39 41 42 42 41 38 35 33 36 38 37 35 34 34 32 31 28 25 25 24 23 23 24 21 19 16 13
39 34 28 32 36 41 45 44 43 46 48 42 37 39 37 39 41 39 38 38 36 34 33 32 33 31 29 26 23 21 21 22 23 24 24 24 24 23 20 18 14 13 13
28 24 26 33 35 37 41 40 42 46 46 41 41 40 38 39 41 40 35 35 31 29 28 25 21 19 20 19 18 18 16 19 21 22 22 21 19 18 16 14 12 13 12
21 20 26 30 30 33 35 38 41 43 43 46 44 42 37 39 39 37 34 29 25 22 17 13 13 14 13 13 15 18 19 20 20 19 18 15 14 14 13 12 14 13 11
12 16 22 23 25 28 33 42 48 48 48 46 45 43 42 41 40 38 31 27 23 22 20 17 13 10 12 15 16 17 17 17 16 14 13 14 14 13 13 14 15 14 14
5 7 13 18 29 40 46 48 47 45 43 39 36 34 32 30 28 27 25 22 17 14 13 11 11 12 13 14 15 14 14 14 14 14 14 14 14 16 15 15 17 18 17
Wind_Direction_500mb
308 299 295 294 293 288 283 280 278 276 272 271 271 271 269 264 263 260 261 260 252 250 247 245 247 245 240 242 242 245 245 244 239 246 249 250 247 243 243 243 240 244 249
312 310 305 302 301 300 292 284 281 280 278 276 269 270 269 263 258 259 259 259 255 250 247 244 244 243 241 239 236 238 240 243 243 239 244 245 245 247 247 247 254 249 250
308 302 301 302 302 302 298 295 291 285 282 277 278 271 267 266 261 256 259 258 256 256 252 245 244 242 240 237 234 234 237 235 242 239 240 245 246 248 253 250 257 249 253
315 308 301 300 303 306 304 298 294 290 287 284 283 278 274 272 266 258 254 253 252 251 250 248 246 243 240 234 233 232 233 234 234 237 241 241 246 246 249 248 252 250 252
312 313 309 303 301 304 304 299 295 291 288 286 283 278 275 272 269 263 254 251 253 249 248 248 244 242 245 240 232 231 231 232 229 231 234 234 240 241 243 249 243 252 243
312 311 312 307 301 300 301 300 296 296 296 295 288 284 281 275 270 266 255 250 252 250 249 245 249 240 243 240 241 237 237 234 230 236 232 235 237 242 244 244 244 233 235
314 313 310 308 301 299 301 301 299 298 296 294 292 285 282 280 274 267 261 253 251 249 248 246 242 241 245 241 239 238 238 240 243 242 235 236 236 235 241 241 229 225 223
317 314 311 307 301 301 301 301 300 300 299 298 293 288 285 280 275 269 263 259 256 255 252 251 245 242 248 247 238 233 230 235 232 239 236 238 239 240 244 230 241 223 227
316 315 315 312 308 307 307 308 306 305 301 300 297 293 288 278 275 267 264 261 257 256 255 255 247 239 254 250 236 230 221 223 230 230 228 228 229 225 209 206 217 223 217
314 315 315 313 310 308 308 308 310 309 306 305 299 296 291 282 274 272 270 265 261 261 262 246 250 247 242 254 232 228 213 214 222 212 214 214 198 188 198 214 218 210 205
315 316 316 316 313 310 309 312 312 311 307 305 302 296 287 284 280 274 270 271 267 261 260 256 254 250 242 239 225 217 210 205 209 201 194 187 184 194 204 202 197 199 202
316 318 318 316 316 314 312 313 316 315 313 311 309 299 292 289 292 286 281 268 267 255 257 258 248 238 229 228 218 203 207 211 190 197 177 170 176 185 182 183 184 186 191
315 317 318 316 317 315 317 318 318 316 314 315 313 306 304 302 304 302 299 288 275 264 247 242 230 208 208 204 197 198 180 173 173 167 166 164 165 174 174 174 177 177 186
314 316 316 314 317 314 316 318 322 316 314 318 314 308 300 296 296 313 300 284 256 234 220 198 180 172 165 158 158 161 162 164 165 162 164 163 164 165 168 172 174 175 181
311 314 313 311 312 310 312 316 319 316 313 323 321 308 284 259 224 351 323 237 197 168 159 153 153 152 150 147 143 145 157 159 158 159 162 162 162 167 166 168 172 173 180
307 310 309 307 306 306 308 310 312 309 311 323 332 320 293 289 332 182 164 144 158 154 145 149 144 141 140 143 150 153 155 155 155 156 156 161 163 166 167 167 172 177 187
302 304 304 299 296 299 301 298 301 297 300 298 312 301 223 189 172 172 168 158 152 157 146 145 144 145 145 149 148 150 148 147 148 155 160 161 162 164 165 163 167 178 184
298 299 297 292 288 291 291 285 281 273 264 222 167 169 163 159 159 160 163 159 147 148 145 144 145 147 146 146 144 146 147 149 153 156 157 155 157 161 159 161 169 177 182
298 297 293 285 280 285 283 274 265 257 234 209 181 182 182 185 180 171 165 168 157 150 146 143 141 139 141 143 145 147 148 148 149 150 152 156 156 159 162 169 175 182 191
296 293 285 277 276 278 275 263 250 239 222 206 197 186 174 171 160 150 149 142 138 133 132 131 133 137 145 149 146 145 146 147 151 153 155 158 163 165 173 178 180 182 191
295 290 275 271 272 271 267 256 243 227 212 197 181 168 162 163 140 130 124 122 122 127 131 137 143 146 144 147 148 148 151 154 156 160 166 168 171 174 175 176 183 192 209
289 282 278 279 275 264 256 247 231 217 201 193 176 159 153 146 138 138 133 126 126 130 134 137 139 139 141 144 149 153 157 162 166 168 169 170 172 174 178 186 195 209 223
285 279 282 276 267 257 248 234 218 203 189 178 161 150 149 139 130 123 119 119 124 125 123 120 122 134 145 149 153 154 162 165 165 166 170 175 179 185 193 202 215 230 237
284 287 279 266 255 242 228 212 194 182 167 154 148 141 137 136 137 137 134 129 125 127 128 135 139 138 135 141 156 165 165 166 168 174 178 184 198 208 214 226 235 241 251
309 293 269 252 238 219 196 174 163 158 154 150 152 155 155 150 147 141 139 133 131 141 151 163 160 159 171 170 168 172 177 182 187 197 204 211 222 232 238 246 255 254 250
330 248 222 193 169 161 158 156 157 157 157 156 154 149 144 141 142 141 147 150 152 144 126 133 163 177 185 188 193 200 210 217 224 234 236 241 245 246 250 253 253 253 252
Wind_Speed_850mb
43 46 50 53 58 64 69 73 76 78 81 89 96 101 111 115 117 122 124 123 123 131 127 125 129 123 118 119 113 123 118 113 103 98 86 71 61 57 60 59 56 53 56
48 47 49 53 58 61 66 74 81 87 89 89 90 101 108 111 114 125 132 134 126 129 128 124 128 123 121 114 108 108 111 114 110 91 93 86 78 70 64 61 59 51 59
55 56 56 59 62 66 66 66 72 83 88 84 86 91 98 107 113 116 127 133 138 137 137 128 127 125 127 121 116 106 104 96 100 92 87 84 82 72 69 67 65 61 62
66 66 69 69 70 69 70 71 75 78 84 91 97 99 102 105 109 116 119 124 130 132 134 136 137 130 126 122 122 116 105 99 98 101 90 90 79 74 74 80 69 66 58
75 78 79 79 79 81 81 80 81 82 90 97 102 105 110 111 112 115 120 124 126 128 131 129 134 138 133 129 122 121 115 110 105 101 99 98 90 83 83 77 72 77 59
73 78 82 86 85 87 89 88 87 92 96 97 100 101 104 110 115 116 116 119 122 127 125 127 136 140 133 136 134 130 120 110 116 108 110 99 95 86 79 80 64 61 62
69 75 79 81 87 93 96 100 105 111 114 117 116 108 108 109 111 111 112 118 124 122 130 126 127 136 127 128 131 136 110 99 116 106 116 100 94 82 83 81 70 61 54
70 73 75 80 88 92 98 109 118 118 117 116 114 104 97 106 104 104 103 108 120 125 127 130 127 138 128 136 134 136 126 123 116 102 90 75 74 65 71 54 39 51 42
74 77 77 79 85 94 103 104 98 99 101 100 98 96 92 96 93 93 95 102 112 121 126 130 134 138 130 129 137 138 129 103 97 94 83 77 60 60 57 51 55 51 45
76 79 81 80 86 92 95 92 92 86 90 89 92 91 87 86 87 88 84 90 103 112 111 127 130 126 135 126 140 142 120 105 103 87 75 57 57 51 44 43 43 45 41
77 81 84 82 83 86 82 78 81 82 82 84 84 84 85 79 85 82 82 91 101 105 117 122 129 136 138 131 132 123 95 97 84 78 66 63 50 35 40 47 40 37 33
79 83 85 83 80 78 72 75 76 81 86 82 84 79 77 79 79 73 85 83 98 105 116 125 130 132 127 102 82 69 60 75 71 60 55 52 36 47 46 41 35 32 27
83 84 83 80 75 67 68 73 73 78 83 81 78 72 63 62 67 71 75 78 74 80 97 96 89 68 85 87 83 69 81 66 68 63 56 51 49 46 43 40 35 30 25
89 84 80 74 70 62 63 67 69 78 71 68 67 62 54 46 39 26 40 40 49 61 68 61 70 51 66 71 68 65 67 67 60 56 58 53 49 44 37 31 29 28 24
91 84 76 65 60 59 57 63 65 67 57 49 48 42 33 24 11 6 4 8 30 65 78 71 61 75 74 74 70 63 53 55 55 56 55 51 43 39 36 32 27 24 20
90 82 71 61 55 53 51 54 57 60 42 33 28 21 21 11 5 7 24 40 39 61 69 69 78 73 66 64 65 64 58 54 50 48 47 46 44 40 36 33 25 21 19
82 76 66 56 49 48 47 47 46 41 29 20 12 11 12 17 20 25 30 48 57 53 54 65 68 65 66 63 63 62 61 54 49 45 43 43 41 38 32 27 23 20 19
73 66 60 54 46 43 43 43 40 34 22 10 8 10 13 16 19 22 23 28 38 41 50 56 59 59 60 59 59 56 54 51 48 45 42 39 35 30 28 25 22 20 18
66 61 52 48 40 41 43 43 41 35 30 24 24 26 27 25 27 29 31 32 39 46 48 49 50 49 48 48 47 48 49 49 45 42 38 34 30 25 26 25 23 20 17
58 50 43 42 39 40 45 43 44 40 41 37 33 30 29 29 32 33 34 38 43 46 48 47 45 41 40 42 43 42 41 39 36 33 29 26 25 24 23 22 20 17 15
50 43 36 36 37 42 46 46 47 46 45 39 34 30 28 30 39 41 42 42 41 38 35 33 36 38 37 35 34 34 32 31 28 25 25 24 23 23 24 21 19 16 13
39 34 28 32 36 41 45 44 43 46 48 42 37 39 37 39 41 39 38 38 36 34 33 32 33 31 29 26 23 21 21 22 23 24 24 24 24 23 20 18 14 13 13
28 24 26 33 35 37 41 40 42 46 46 41 41 40 38 39 41 40 35 35 31 29 28 25 21 19 20 19 18 18 16 19 21 22 22 21 19 18 16 14 12 13 12
21 20 26 30 30 33 35 38 41 43 43 46 44 42 37 39 39 37 34 29 25 22 17 13 13 14 13 13 15 18 19 20 20 19 18 15 14 14 13 12 14 13 11
12 16 22 23 25 28 33 42 48 48 48 46 45 43 42 41 40 38 31 27 23 22 20 17 13 10 12 15 16 17 17 17 16 14 13 14 14 13 13 14 15 14 14
5 7 13 18 29 40 46 48 47 45 43 39 36 34 32 30 28 27 25 22 17 14 13 11 11 12 13 14 15 14 14 14 14 14 14 14 14 16 15 15 17 18 17
Wind_Direction_850mb
308 299 295 294 293 288 283 280 278 276 272 271 271 271 269 264 263 260 261 260 252 250 247 245 247 245 240 242 242 245 245 244 239 246 249 250 247 243 243 243 240 244 249
312 310 305 302 301 300 292 284 281 280 278 276 269 270 269 263 258 259 259 259 255 250 247 244 244 243 241 239 236 238 240 243 243 239 244 245 245 247 247 247 254 249 250
308 302 301 302 302 302 298 295 291 285 282 277 278 271 267 266 261 256 259 258 256 256 252 245 244 242 240 237 234 234 237 235 242 239 240 245 246 248 253 250 257 249 253
315 308 301 300 303 306 304 298 294 290 287 284 283 278 274 272 266 258 254 253 252 251 250 248 246 243 240 234 233 232 233 234 234 237 241 241 246 246 249 248 252 250 252
312 313 309 303 301 304 304 299 295 291 288 286 283 278 275 272 269 263 254 251 253 249 248 248 244 242 245 240 232 231 231 232 229 231 234 234 240 241 243 249 243 252 243
312 311 312 307 301 300 301 300 296 296 296 295 288 284 281 275 270 266 255 250 252 250 249 245 249 240 243 240 241 237 237 234 230 236 232 235 237 242 244 244 244 233 235
314 313 310 308 301 299 301 301 299 298 296 294 292 285 282 280 274 267 261 253 251 249 248 246 242 241 245 241 239 238 238 240 243 242 235 236 236 235 241 241 229 225 223
317 314 311 307 301 301 301 301 300 300 299 298 293 288 285 280 275 269 263 259 256 255 252 251 245 242 248 247 238 233 230 235 232 239 236 238 239 240 244 230 241 223 227
316 315 315 312 308 307 307 308 306 305 301 300 297 293 288 278 275 267 264 261 257 256 255 255 247 239 254 250 236 230 221 223 230 230 228 228 229 225 209 206 217 223 217
314 315 315 313 310 308 308 308 310 309 306 305 299 296 291 282 274 272 270 265 261 261 262 246 250 247 242 254 232 228 213 214 222 212 214 214 198 188 198 214 218 210 205
315 316 316 316 313 310 309 312 312 311 307 305 302 296 287 284 280 274 270 271 267 261 260 256 254 250 242 239 225 217 210 205 209 201 194 187 184 194 204 202 197 199 202
316 318 318 316 316 314 312 313 316 315 313 311 309 299 292 289 292 286 281 268 267 255 257 258 248 238 229 228 218 203 207 211 190 197 177 170 176 185 182 183 184 186 191
315 317 318 316 317 315 317 318 318 316 314 315 313 306 304 302 304 302 299 288 275 264 247 242 230 208 208 204 197 198 180 173 173 167 166 164 165 174 174 174 177 177 186
314 316 316 314 317 314 316 318 322 316 314 318 314 308 300 296 296 313 300 284 256 234 220 198 180 172 165 158 158 161 162 164 165 162 164 163 164 165 168 172 174 175 181
311 314 313 311 312 310 312 316 319 316 313 323 321 308 284 259 224 351 323 237 197 168 159 153 153 152 150 147 143 145 157 159 158 159 162 162 162 167 166 168 172 173 180
307 310 309 307 306 306 308 310 312 309 311 323 332 320 293 289 332 182 164 144 158 154 145 149 144 141 140 143 150 153 155 155 155 156 156 161 163 166 167 167 172 177 187
302 304 304 299 296 299 301 298 301 297 300 298 312 301 223 189 172 172 168 158 152 157 146 145 144 145 145 149 148 150 148 147 148 155 160 161 162 164 165 163 167 178 184
298 299 297 292 288 291 291 285 281 273 264 222 167 169 163 159 159 160 163 159 147 148 145 144 145 147 146 146 144 146 147 149 153 156 157 155 157 161 159 161 169 177 182
298 297 293 285 280 285 283 274 265 257 234 209 181 182 182 185 180 171 165 168 157 150 146 143 141 139 141 143 145 147 148 148 149 150 152 156 156 159 162 169 175 182 191
296 293 285 277 276 278 275 263 250 239 222 206 197 186 174 171 160 150 149 142 138 133 132 131 133 137 145 149 146 145 146 147 151 153 155 158 163 165 173 178 180 182 191
295 290 275 271 272 271 267 256 243 227 212 197 181 168 162 163 140 130 124 122 122 127 131 137 143 146 144 147 148 148 151 154 156 160 166 168 171 174 175 176 183 192 209
289 282 278 279 275 264 256 247 231 217 201 193 176 159 153 146 138 138 133 126 126 130 134 137 139 139 141 144 149 153 157 162 166 168 169 170 172 174 178 186 195 209 223
285 279 282 276 267 257 248 234 218 203 189 178 161 150 149 139 130 123 119 119 124 125 123 120 122 134 145 149 153 154 162 165 165 166 170 175 179 185 193 202 215 230 237
284 287 279 266 255 242 228 212 194 182 167 154 148 141 137 136 137 137 134 129 125 127 128 135 139 138 135 141 156 165 165 166 168 174 178 184 198 208 214 226 235 241 251
309 293 269 252 238 219 196 174 163 158 154 150 152 155 155 150 147 141 139 133 131 141 151 163 160 159 171 170 168 172 177 182 187 197 204 211 222 232 238 246 255 254 250
330 248 222 193 169 161 158 156 157 157 157 156 154 149 144 141 142 141 147 150 152 144 126 133 163 177 185 188 193 200 210 217 224 234 236 241 245 246 250 253 253 253 252